COSMOS 2529 [GLONASS-M] (43687 NORAD) Tracking and Keplerian Element Data

This shows tracking and keplerian element data for the satellite.

Feedback or suggestion? Click here.




ElementValue
Catalog43687
NameCOSMOS 2529 [GLONASS-M]
Epoch Orbit7
Epoch Day311.24303076
Epoch Year2018
RAAN287.3727
Inclination64.8166
Eccentricity0.0007853
Argument of Perigee287.4633
Mean Anonmoly104.9207
Mean Motion2.1293339
Decay Rate-3.4E-07
L11 43687U 18086A 18311.24303076 -.00000034 00000-0 00000+0 0 9997
L22 43687 64.8166 287.3727 0007853 287.4633 104.9207 2.12933390 75

Live tracking and technical data element details for COSMOS 2529 [GLONASS-M] (NORAD 43687). COSMOS 2529 [GLONASS-M] can be tracked NOW for your location showing map with azimuth and elevation plus other details from your city location.

Track the satellite on the map from your city or location and see movement details for azimuth, elevation, latitude, longitude, range, height, and movement on the map or in text.







IsCatalogInMostPopularTable: catalog: 43687, numindb: 7
Update: records affected: 1



GetName: 43687 COSMOS 2529 [GLONASS-M]

Hit Count: updated at: Thu, 15 Nov 2018 04:14:10 GMT